Location: Unspecified
(54.1780°N, 0.0000°E)
Time: 12:56:52
(UTC+00:00)

Transit 2A - Pass Details

Date: 20 June 2019
Orbit: 594 x 964 km, 66.7° (Epoch: 20 July)

Event Time Altitude Azimuth Distance (km) Brightness Sun altitude
Rises 08:31:34 0° 317° (NW) 3,545 9.0 40.5°
Reaches altitude 10° 08:34:12 10° 319° (NW) 2,554 8.4 40.9°
Maximum altitude 08:40:08 79° 47° (NE) 843 7.1 41.7°
Drops below altitude 10° 08:45:26 10° 134° (SE) 2,291 9.4 42.4°
Sets 08:47:41 0° 136° (SE) 3,156 9.9 42.7°
